weather.gov     
National Weather Service

Terminal Aerodrome Forecast
NWS Homepage
This page is being discontinued on March 12, 2014.
The same data is available at this site. Please update your bookmarks.
Thank you, and we apologize for the inconvenience.
Please send an email to SR-SRH.Webmaster@noaa.gov with any concerns.


Current Version
Previous Version:    01  02  03  04  05  06  07  08  09  10  11  12  13  14  
[Printable]
298
FTUS41 KGYX 302320
TAFPWM
TAF
KPWM 302320Z 3100/3124 19008G16KT P6SM SCT120 BKN200
     FM310200 21004KT P6SM SCT120
     FM310800 21004KT P6SM BKN015
     FM311000 22006KT 4SM BR OVC007
     FM311500 21008KT P6SM SCT012 BKN040=




298
FTUS41 KGYX 302320
TAFPWM
TAF
KPWM 302320Z 3100/3124 19008G16KT P6SM SCT120 BKN200
     FM310200 21004KT P6SM SCT120
     FM310800 21004KT P6SM BKN015
     FM311000 22006KT 4SM BR OVC007
     FM311500 21008KT P6SM SCT012 BKN040=


U.S. Dept. of Commerce
NOAA National Weather Service
1325 East West Highway
Silver Spring, MD 20910
E-mail: w-nws.webmaster@noaa.gov
Page last modified: May 16, 2007
NATIONAL WEATHER SERVICE: for Safety, for Work, for Fun - FOR LIFE